Temp
-1 -1 -1 -0 1 1 2 2 3 3 4 4 5 5 7 7 7 6 5 6 5 7 8 8 9 9 9
-1 -1 -1 -2 -2 -1 0 0 1 1 1 2 2 2 2 3 3 4 4 4 5 6 7 7 8 8 9
-3 -3 -2 -2 -2 -3 -3 -2 -0 0 0 0 0 1 1 1 1 1 2 2 3 6 6 6 7 8 8
-4 -4 -4 -3 -4 -3 -2 -3 -3 -1 -1 -1 -1 -0 -0 0 0 1 1 1 1 2 5 6 6 6 7
-5 -5 -5 -4 -4 -4 -5 -4 -4 -4 -3 -3 -2 -2 -1 -1 -2 -1 -0 -0 0 2 2 3 4 5 5
-5 -5 -5 -5 -5 -5 -6 -6 -5 -5 -5 -5 -4 -3 -3 -3 -2 -2 -2 -2 -1 -1 0 1 2 3 4
-6 -6 -5 -6 -6 -6 -6 -6 -6 -5 -6 -6 -6 -6 -5 -3 -2 -3 -2 -2 -3 -3 -2 -1 -0 1 2
-6 -6 -6 -6 -6 -6 -6 -6 -6 -6 -6 -6 -6 -6 -6 -4 -3 -3 -3 -4 -4 -3 -2 -2 -1 -0 0
-6 -7 -7 -7 -7 -7 -7 -7 -7 -6 -6 -7 -6 -7 -6 -5 -4 -4 -5 -4 -3 -3 -3 -2 -2 -2 -1
-7 -7 -7 -7 -7 -7 -7 -7 -7 -7 -7 -7 -7 -8 -8 -6 -6 -5 -4 -4 -4 -4 -4 -3 -3 -3 -2
-6 -7 -7 -7 -7 -8 -8 -8 -8 -8 -7 -8 -8 -8 -8 -9 -8 -6 -6 -5 -5 -5 -4 -4 -3 -3 -4
-7 -6 -7 -7 -7 -8 -9 -9 -8 -9 -8 -9 -9 -9 -9 -9 -9 -7 -6 -6 -6 -5 -5 -4 -4 -4 -4
-7 -7 -8 -8 -8 -8 -7 -9 -9 -8 -8 -8 -9 -9 -10 -10 -10 -9 -8 -6 -6 -5 -6 -6 -5 -4 -4
-7 -7 -8 -8 -9 -9 -9 -10 -10 -9 -8 -8 -10 -10 -10 -10 -11 -9 -8 -10 -7 -7 -7 -6 -5 -5 -5
-9 -9 -9 -9 -9 -9 -9 -10 -10 -10 -9 -9 -10 -10 -10 -11 -11 -9 -8 -8 -7 -8 -9 -8 -6 -6 -6
-9 -9 -8 -9 -9 -9 -9 -10 -10 -9 -9 -9 -11 -10 -10 -10 -10 -10 -9 -9 -8 -8 -10 -10 -9 -6 -7
-8 -8 -8 -8 -8 -9 -9 -9 -9 -9 -9 -9 -11 -11 -11 -11 -9 -10 -10 -10 -10 -10 -8 -10 -10 -7 -7
Height
1430 1428 1425 1421 1418 1415 1414 1413 1412 1410 1406 1407 1403 1405 1403 1402 1403 1405 1408 1408 1411 1412 1414 1416 1417 1419 1422
1426 1424 1423 1422 1419 1417 1414 1411 1409 1408 1406 1402 1402 1402 1397 1397 1398 1399 1402 1406 1407 1404 1408 1410 1412 1413 1414
1425 1422 1420 1418 1416 1414 1412 1410 1408 1405 1403 1403 1400 1398 1397 1395 1395 1396 1397 1402 1402 1400 1402 1404 1406 1406 1407
1424 1422 1420 1418 1415 1412 1409 1407 1404 1402 1401 1398 1398 1398 1397 1395 1394 1395 1394 1397 1397 1395 1392 1397 1397 1397 1399
1423 1420 1417 1417 1415 1413 1410 1406 1404 1402 1399 1398 1398 1397 1396 1394 1391 1392 1392 1393 1392 1389 1386 1388 1387 1387 1390
1421 1418 1416 1415 1414 1412 1409 1406 1404 1402 1399 1397 1396 1393 1392 1391 1389 1389 1388 1388 1387 1384 1382 1380 1377 1379 1383
1417 1416 1414 1411 1409 1408 1406 1404 1402 1400 1398 1394 1393 1390 1389 1387 1385 1384 1382 1382 1382 1378 1376 1374 1372 1375 1375
1414 1411 1410 1407 1406 1404 1402 1400 1397 1396 1396 1390 1389 1386 1384 1382 1381 1379 1378 1377 1374 1372 1368 1367 1366 1367 1367
1410 1408 1405 1403 1402 1400 1397 1396 1393 1391 1390 1387 1384 1382 1379 1378 1376 1374 1373 1372 1370 1366 1364 1364 1362 1361 1360
1404 1402 1401 1399 1398 1396 1393 1391 1390 1386 1385 1385 1382 1380 1374 1371 1372 1372 1369 1366 1364 1361 1359 1358 1356 1355 1353
1398 1397 1395 1393 1392 1390 1389 1388 1386 1383 1382 1381 1377 1377 1375 1367 1362 1362 1359 1356 1354 1353 1351 1350 1348 1346 1342
1394 1392 1390 1389 1387 1385 1383 1381 1380 1377 1376 1376 1372 1371 1368 1363 1358 1353 1351 1348 1346 1344 1342 1341 1341 1340 1340
1389 1387 1387 1385 1382 1379 1377 1374 1372 1370 1369 1368 1366 1364 1363 1359 1354 1349 1345 1342 1341 1338 1337 1335 1333 1331 1331
1385 1383 1382 1380 1377 1374 1372 1370 1367 1363 1362 1361 1360 1358 1355 1352 1350 1343 1343 1340 1336 1334 1332 1328 1327 1326 1325
1381 1379 1377 1375 1372 1370 1367 1365 1361 1357 1354 1353 1353 1351 1348 1346 1342 1338 1334 1332 1331 1328 1327 1323 1321 1320 1319
1375 1374 1372 1369 1366 1364 1362 1359 1355 1352 1348 1347 1345 1343 1341 1338 1336 1331 1328 1325 1324 1323 1322 1319 1314 1315 1314
1370 1368 1366 1362 1360 1358 1355 1352 1349 1346 1342 1341 1339 1338 1334 1329 1327 1327 1323 1320 1318 1316 1315 1313 1308 1306 1305
Wind_Speed
13 14 13 17 17 16 15 15 14 15 17 18 19 21 21 23 26 24 26 20 21 19 19 21 25 30 31
12 15 14 13 15 15 14 13 14 14 13 14 15 17 16 17 20 19 25 29 27 23 24 24 23 27 30
15 16 16 17 17 16 16 16 13 14 14 14 14 13 14 14 15 19 20 22 24 28 28 27 27 28 29
11 11 13 15 17 19 19 19 20 17 12 13 15 15 15 13 14 17 16 19 22 24 26 28 28 30 31
14 15 12 11 15 16 17 19 16 15 17 17 18 15 13 14 15 17 17 18 23 24 24 25 27 29 30
16 15 17 12 15 16 19 17 17 14 18 25 21 18 16 15 16 18 19 17 20 20 21 23 24 27 30
17 14 17 17 18 19 19 19 21 22 23 23 22 18 21 20 19 19 20 18 19 17 19 20 20 24 27
17 19 19 20 18 19 22 25 25 19 16 25 22 26 23 24 21 18 18 15 14 20 21 22 23 24 25
15 17 18 17 16 20 23 22 25 26 23 24 22 22 27 26 15 15 9 17 25 23 21 22 23 25 26
21 19 17 17 17 17 19 21 22 23 8 15 20 22 16 21 10 25 27 26 25 21 22 23 22 24 25
19 17 18 17 16 14 16 18 22 24 24 21 25 26 24 30 33 32 31 30 29 26 23 21 22 22 23
19 18 17 18 19 18 17 19 21 26 25 23 26 25 29 33 36 35 33 33 30 27 24 19 18 21 22
18 18 18 19 20 22 22 20 20 22 23 22 25 26 26 30 34 35 34 32 27 19 26 26 26 25 26
19 19 20 20 20 19 20 21 24 26 24 22 23 25 29 29 29 33 30 29 31 31 29 27 25 24 23
18 19 21 21 21 20 21 23 26 29 29 26 22 22 26 27 31 31 32 30 26 27 24 27 26 25 25
20 21 23 23 23 23 23 24 27 29 29 27 25 24 26 29 28 31 29 29 27 26 23 26 31 23 25
21 22 22 23 23 24 24 24 27 28 28 27 26 25 28 30 30 24 28 28 26 28 28 28 32 31 27
Wind_Direction
315 320 337 334 340 342 337 334 328 320 318 303 282 276 271 271 283 300 298 282 275 269 261 253 247 244 245
324 323 332 338 337 339 341 340 333 327 323 321 318 316 315 298 286 282 286 286 277 273 267 263 260 254 249
324 329 330 334 337 339 345 337 336 331 328 322 323 320 314 308 300 284 281 283 280 267 263 262 262 257 257
303 315 323 336 337 329 335 338 340 333 325 323 324 321 316 304 294 291 285 286 282 279 271 265 263 261 259
319 310 326 330 326 329 321 318 326 328 330 321 322 319 313 306 302 297 291 284 279 280 280 275 270 265 261
300 304 312 316 304 303 313 323 321 322 302 309 318 314 313 308 299 299 298 290 283 283 282 278 274 271 267
302 302 295 297 304 306 311 306 296 303 306 311 314 310 308 304 305 301 291 286 283 289 295 292 286 277 271
280 285 281 285 289 293 293 297 302 309 301 296 303 304 307 306 311 298 291 282 287 307 301 294 290 286 281
287 289 293 291 286 286 286 293 295 298 298 294 306 299 297 309 310 299 281 303 305 304 298 294 291 287 284
295 296 291 282 282 279 286 287 291 302 320 303 303 308 312 307 287 299 302 305 307 303 301 299 294 291 288
300 296 290 289 290 280 273 270 276 274 279 288 292 292 285 293 299 305 308 311 310 309 304 298 296 297 297
292 295 296 289 287 283 281 279 274 275 282 278 277 279 285 289 293 302 305 306 308 310 309 304 298 297 295
291 293 292 290 290 292 292 291 286 285 286 286 283 284 279 279 284 292 301 305 307 305 307 304 302 300 299
289 293 291 294 297 297 293 290 288 292 293 289 282 279 280 279 281 287 292 289 299 300 301 298 298 299 298
288 288 289 291 294 295 290 289 288 293 297 297 292 284 281 283 285 287 293 293 296 299 297 296 295 296 297
287 290 293 296 297 299 295 293 292 295 296 298 294 286 285 283 280 285 292 292 296 296 292 284 288 292 295
296 298 299 301 302 301 300 296 295 295 295 296 291 284 282 278 293 283 281 286 291 289 291 286 286 295 294